Hourly Weather Alipur

Today, 9 March, Tuesday

Time Temperature Precipitation Wind Pressure Humidity
00:00 +25°C° 0 mm 2 mps 739 mmHg 25%
01:00 +25°C° 0 mm 3 mps 739 mmHg 26%
02:00 +24°C° 0 mm 3 mps 739 mmHg 27%
03:00 +23°C° 0 mm 2 mps 739 mmHg 27%
04:00 +23°C° 0 mm 2 mps 739 mmHg 27%
05:00 +23°C° 0 mm 1 mps 739 mmHg 26%
06:00 +24°C° 0 mm 2 mps 740 mmHg 24%
07:00 +25°C° 0 mm 2 mps 740 mmHg 23%
08:00 +27°C° 0 mm 2 mps 741 mmHg 21%
09:00 +29°C° 0 mm 2 mps 741 mmHg 18%
10:00 +32°C° 0 mm 2 mps 741 mmHg 16%
11:00 +35°C° 0 mm 2 mps 741 mmHg 13%
12:00 +36°C° 0 mm 2 mps 740 mmHg 13%
13:00 +37°C° 0 mm 2 mps 739 mmHg 13%
14:00 +37°C° 0 mm 1 mps 738 mmHg 12%
15:00 +36°C° 0 mm 1 mps 738 mmHg 13%
16:00 +36°C° 0 mm 1 mps 737 mmHg 14%
17:00 +35°C° 0 mm 1 mps 737 mmHg 14%
18:00 +33°C° 0 mm 1 mps 738 mmHg 16%
19:00 +32°C° 0 mm 1 mps 738 mmHg 18%
20:00 +30°C° 0 mm 1 mps 738 mmHg 20%
21:00 +29°C° 0 mm 1 mps 738 mmHg 21%
22:00 +28°C° 0 mm 1 mps 738 mmHg 22%
23:00 +27°C° 0 mm 1 mps 738 mmHg 24%

Tomorrow, 10 March, Wednesday

Time Temperature Precipitation Wind Pressure Humidity
00:00 +26°C° 0 mm 1 mps 738 mmHg 25%
01:00 +26°C° 0 mm 1 mps 738 mmHg 26%
02:00 +25°C° 0 mm 1 mps 738 mmHg 26%
03:00 +24°C° 0 mm 1 mps 738 mmHg 27%
04:00 +24°C° 0 mm 1 mps 738 mmHg 27%
05:00 +23°C° 0 mm 1 mps 738 mmHg 28%
06:00 +25°C° 0 mm 1 mps 739 mmHg 25%
07:00 +26°C° 0 mm 1 mps 740 mmHg 23%
08:00 +28°C° 0 mm 1 mps 740 mmHg 20%
09:00 +30°C° 0 mm 1 mps 740 mmHg 18%
10:00 +33°C° 0 mm 1 mps 740 mmHg 17%
11:00 +36°C° 0 mm 1 mps 740 mmHg 15%
12:00 +36°C° 0 mm 1 mps 740 mmHg 14%
13:00 +37°C° 0 mm 2 mps 739 mmHg 13%
14:00 +38°C° 0 mm 2 mps 738 mmHg 12%
15:00 +37°C° 0 mm 2 mps 737 mmHg 13%
16:00 +36°C° 0 mm 1 mps 737 mmHg 13%
17:00 +36°C° 0 mm 1 mps 737 mmHg 13%
18:00 +34°C° 0 mm 1 mps 737 mmHg 15%
19:00 +32°C° 0 mm 1 mps 737 mmHg 16%
20:00 +30°C° 0 mm 1 mps 738 mmHg 18%
21:00 +29°C° 0 mm 1 mps 738 mmHg 18%
22:00 +28°C° 0 mm 2 mps 738 mmHg 19%
23:00 +27°C° 0 mm 2 mps 738 mmHg 20%

Day after tomorrow, 11 March, Thursday

Time Temperature Precipitation Wind Pressure Humidity
00:00 +27°C° 0 mm 2 mps 738 mmHg 20%
01:00 +26°C° 0 mm 2 mps 738 mmHg 20%
02:00 +26°C° 0 mm 2 mps 738 mmHg 20%
03:00 +25°C° 0 mm 2 mps 738 mmHg 20%
04:00 +25°C° 0 mm 2 mps 738 mmHg 20%
05:00 +24°C° 0 mm 2 mps 738 mmHg 20%
06:00 +25°C° 0 mm 2 mps 739 mmHg 19%
07:00 +26°C° 0 mm 2 mps 739 mmHg 18%
08:00 +27°C° 0 mm 2 mps 740 mmHg 17%
09:00 +30°C° 0 mm 2 mps 740 mmHg 14%
10:00 +34°C° 0 mm 2 mps 740 mmHg 12%
11:00 +37°C° 0 mm 3 mps 741 mmHg 10%
12:00 +38°C° 0 mm 3 mps 740 mmHg 9%
13:00 +39°C° 0 mm 2 mps 739 mmHg 8%
14:00 +40°C° 0 mm 2 mps 738 mmHg 7%
15:00 +39°C° 0 mm 2 mps 738 mmHg 7%
16:00 +38°C° 0 mm 2 mps 737 mmHg 8%
17:00 +38°C° 0 mm 2 mps 737 mmHg 8%
18:00 +36°C° 0 mm 2 mps 737 mmHg 9%
19:00 +34°C° 0 mm 2 mps 737 mmHg 10%
20:00 +31°C° 0 mm 2 mps 738 mmHg 11%
21:00 +31°C° 0 mm 2 mps 738 mmHg 11%
22:00 +30°C° 0 mm 2 mps 738 mmHg 12%
23:00 +29°C° 0 mm 3 mps 739 mmHg 13%

12 March, Friday

Time Temperature Precipitation Wind Pressure Humidity
00:00 +29°C° 0 mm 3 mps 739 mmHg 14%
01:00 +28°C° 0 mm 3 mps 738 mmHg 15%
02:00 +28°C° 0 mm 2 mps 738 mmHg 16%
03:00 +27°C° 0 mm 2 mps 738 mmHg 18%
04:00 +27°C° 0 mm 2 mps 739 mmHg 19%
05:00 +26°C° 0 mm 2 mps 739 mmHg 21%
06:00 +26°C° 0.1 mm 2 mps 740 mmHg 24%
07:00 +26°C° 0.1 mm 2 mps 740 mmHg 28%
08:00 +26°C° 0.1 mm 2 mps 741 mmHg 31%
09:00 +28°C° 0.1 mm 2 mps 741 mmHg 28%
10:00 +30°C° 0.1 mm 3 mps 742 mmHg 24%
11:00 +33°C° 0.1 mm 3 mps 742 mmHg 20%
12:00 +34°C° 0.1 mm 3 mps 741 mmHg 19%
13:00 +36°C° 0.1 mm 4 mps 741 mmHg 17%
14:00 +37°C° 0.1 mm 4 mps 740 mmHg 15%
15:00 +34°C° 0.6 mm 5 mps 740 mmHg 27%
16:00 +29°C° 0.6 mm 6 mps 739 mmHg 40%
17:00 +24°C° 0.6 mm 7 mps 739 mmHg 52%
18:00 +24°C° 0.7 mm 6 mps 740 mmHg 53%
19:00 +23°C° 0.7 mm 6 mps 740 mmHg 54%
20:00 +23°C° 0.7 mm 6 mps 741 mmHg 55%
21:00 +23°C° 0.1 mm 5 mps 741 mmHg 51%
22:00 +23°C° 0.1 mm 5 mps 742 mmHg 48%
23:00 +23°C° 0.1 mm 4 mps 742 mmHg 45%

13 March, Saturday

Time Temperature Precipitation Wind Pressure Humidity
00:00 +24°C° 0 mm 3 mps 742 mmHg 48%
01:00 +23°C° 0 mm 2 mps 742 mmHg 51%
02:00 +21°C° 0 mm 2 mps 741 mmHg 54%
03:00 +22°C° 0 mm 1 mps 741 mmHg 54%
04:00 +22°C° 0 mm 1 mps 742 mmHg 53%
05:00 +22°C° 0 mm 1 mps 742 mmHg 53%
06:00 +23°C° 0 mm 1 mps 742 mmHg 49%
07:00 +24°C° 0 mm 1 mps 743 mmHg 45%
08:00 +23°C° 0 mm 0 mps 743 mmHg 42%
09:00 +28°C° 0 mm 1 mps 743 mmHg 36%
10:00 +30°C° 0 mm 1 mps 743 mmHg 30%
11:00 +33°C° 0 mm 1 mps 743 mmHg 24%
12:00 +34°C° 0 mm 1 mps 742 mmHg 21%
13:00 +35°C° 0 mm 1 mps 741 mmHg 18%
14:00 +36°C° 0 mm 1 mps 741 mmHg 16%
15:00 +35°C° 0 mm 1 mps 740 mmHg 16%
16:00 +35°C° 0 mm 1 mps 740 mmHg 16%
17:00 +34°C° 0 mm 1 mps 739 mmHg 16%
18:00 +33°C° 0 mm 1 mps 739 mmHg 17%
19:00 +31°C° 0 mm 1 mps 739 mmHg 19%
20:00 +29°C° 0 mm 1 mps 739 mmHg 21%
21:00 +28°C° 0 mm 1 mps 739 mmHg 21%
22:00 +28°C° 0 mm 2 mps 739 mmHg 21%
23:00 +27°C° 0 mm 3 mps 739 mmHg 22%

14 March, Sunday

Time Temperature Precipitation Wind Pressure Humidity
00:00 +26°C° 0 mm 2 mps 739 mmHg 22%
01:00 +26°C° 0 mm 2 mps 738 mmHg 23%
02:00 +25°C° 0 mm 2 mps 738 mmHg 24%
03:00 +24°C° 0 mm 2 mps 738 mmHg 25%
04:00 +24°C° 0 mm 2 mps 738 mmHg 26%
05:00 +23°C° 0 mm 2 mps 738 mmHg 27%
06:00 +25°C° 0 mm 2 mps 738 mmHg 25%
07:00 +26°C° 0 mm 2 mps 739 mmHg 24%
08:00 +27°C° 0 mm 2 mps 739 mmHg 22%
09:00 +30°C° 0 mm 3 mps 739 mmHg 19%
10:00 +34°C° 0 mm 3 mps 740 mmHg 16%
11:00 +37°C° 0 mm 4 mps 740 mmHg 13%
12:00 +38°C° 0 mm 4 mps 739 mmHg 11%
13:00 +40°C° 0 mm 4 mps 738 mmHg 10%
14:00 +41°C° 0 mm 5 mps 737 mmHg 8%
15:00 +40°C° 0 mm 4 mps 737 mmHg 8%
16:00 +38°C° 0 mm 4 mps 736 mmHg 9%
17:00 +38°C° 0 mm 4 mps 736 mmHg 9%
18:00 +36°C° 0 mm 4 mps 736 mmHg 10%
19:00 +34°C° 0 mm 3 mps 737 mmHg 11%
20:00 +30°C° 0 mm 3 mps 737 mmHg 12%
21:00 +29°C° 0 mm 3 mps 737 mmHg 13%
22:00 +28°C° 0 mm 3 mps 737 mmHg 14%
23:00 +27°C° 0 mm 2 mps 737 mmHg 15%
Show more